Location: *
(31.2983°S, 151.4094°E)
Time: 08:23:58
(UTC+00:00)

Okean O Rocket - Pass Details

Date: 25 August 2019
Orbit: 623 x 644 km, 98.2° (Epoch: 19 September)

Event Time Altitude Azimuth Distance (km) Brightness Sun altitude
Rises 17:46:41 0° 40° (NE) 2,944 5.4 -33.1°
Reaches altitude 10° 17:49:08 10° 52° (NE) 2,045 4.7 -32.6°
Maximum altitude 17:52:52 27° 109° (ESE) 1,256 3.6 -31.8°
Drops below altitude 10° 17:56:39 10° 166° (SSE) 2,068 4.4 -31.0°
Sets 17:59:08 0° 177° (S) 2,985 5.2 -30.5°
